Location: Butte
(46.0040°N, 112.5340°W)
Time: 07:01:21
(UTC-06:00)

Daily predictions for brighter satellites

Satellite Brightness Start Highest point End
(mag) Time Altitude Azimuth Time Altitude Azimuth Time Altitude Azimuth
SJ-11-01 4.5 21:40:23 10° S 21:45:04 78° WSW 21:49:49 10° NNW
Cosmos 921 Rocket 4.3 21:41:08 10° N 21:45:04 29° ENE 21:48:56 10° ESE
Cosmos 1697 Rocket 4.3 21:40:50 10° N 21:45:13 23° NE 21:49:35 10° E
H-2A R/B 3.5 21:41:30 10° ESE 21:45:17 22° ENE 21:49:07 10° NNE
Cosmos 1666 2.7 21:41:53 10° N 21:45:40 88° W 21:49:24 10° S
YAOGAN 6 2.5 21:42:19 10° SSE 21:45:47 67° ENE 21:49:17 10° N
Aureole 3 Rocket 3.4 21:40:08 10° S 21:46:08 78° E 21:50:25 10° NNE
Cosmos 1939 Rocket 3.0 21:42:35 10° S 21:46:25 72° WSW 21:50:19 10° NNW
Meteor 2-9 Rocket 4.2 21:48:18 10° N 21:53:48 84° E 21:59:26 10° SSE
Okean 1-7 Rocket 3.7 21:51:40 10° S 21:56:03 60° E 22:00:30 10° NNE
TELKOM 3 3.5 21:53:55 10° WNW 21:56:05 57° NNE 21:58:51 10° E
Cosmos 1437 Rocket 3.2 21:53:09 10° N 21:56:52 46° ENE 22:00:36 10° SSE
Cosmos 1680 Rocket 3.6 21:52:55 10° SSW 21:58:09 82° WNW 22:03:24 10° NNE
Cosmos 2056 Rocket 3.7 21:54:25 10° NNW 21:59:35 61° ENE 22:04:38 10° SE
Helios 1B rocket 3.1 21:58:40 10° N 22:02:46 61° WNW 22:06:50 10° SSW
Cosmos 1833 Rocket 4.0 22:01:01 10° SE 22:04:58 20° E 22:08:55 10° NE
Cosmos 1606 Rocket 3.8 22:02:00 10° N 22:06:15 53° ENE 22:10:23 10° SSE
Envisat 4.1 22:01:40 10° S 22:06:29 43° W 22:11:19 10° NNW
Cosmos 2341 Rocket 4.3 22:01:50 10° N 22:08:05 56° ENE 22:14:21 10° SSE
Cosmos 405 3.3 22:06:48 10° NNW 22:10:21 67° W 22:13:52 10° S
MetOp-A 4.2 22:05:10 10° SSE 22:10:29 72° ENE 22:15:51 10° N
Meteor 2-4 Rocket 3.9 22:07:13 10° SSW 22:12:53 80° WNW 22:18:46 10° N
Intercosmos 24 3.7 22:09:58 10° N 22:13:57 90° SW 22:17:30 10° S
Cosmos 1726 Rocket 3.7 22:11:42 10° N 22:15:59 56° ENE 22:19:45 13° SSE
Cosmos 1515 4.1 22:15:55 10° SSE 22:19:27 44° E 22:23:06 10° NNE
Cosmos 1025 Rocket 3.0 22:15:26 10° S 22:19:43 87° WNW 22:24:00 10° N
COSMOS 2487 3.5 22:17:33 13° SSE 22:20:01 27° ESE 22:23:05 10° NE
USA 245 2.6 22:19:45 19° SE 22:21:14 42° ENE 22:23:27 10° N
Cosmos 839 Rocket 4.3 22:23:18 10° NW 22:29:48 90° WSW 22:36:25 15° SSE
Cosmos 2058 Rocket 3.2 22:26:23 10° N 22:30:46 60° ENE 22:34:08 17° SSE
Tiangong 2 1.5 22:28:04 10° WSW 22:31:07 43° S 22:33:10 18° ESE
Cosmos 1452 Rocket 4.0 22:26:23 10° NNW 22:31:31 49° ENE 22:35:24 17° SE
YAOGAN 11 4.1 22:29:45 13° SSE 22:33:33 86° WSW 22:37:56 10° NNW
Cosmos 1980 Rocket 3.4 22:28:46 10° N 22:33:45 30° NE 22:38:08 12° ESE
Landsat 7 4.5 22:31:19 16° SE 22:34:42 42° ENE 22:39:11 10° N
Okean 2 3.5 22:31:32 10° SSW 22:35:37 74° W 22:39:43 10° N
SPOT 1/Viking Rocket 3.6 22:32:18 16° SSE 22:36:28 66° ENE 22:41:36 10° N
Aureole 1 Rocket 4.4 22:34:12 10° SW 22:36:56 27° WNW 22:39:33 10° N
Lacrosse 5 rocket 3.8 22:34:33 10° NW 22:38:12 22° N 22:41:53 10° ENE
Cosmos 2181 Rocket 4.0 22:34:47 10° S 22:41:07 71° E 22:47:22 10° NNE
Cosmos 2322 Rocket 4.3 22:40:04 10° N 22:43:43 17° NE 22:47:21 10° E
ARGOS 3.3 22:40:02 13° S 22:44:52 78° WSW 22:50:20 10° NNW
Cosmos 1295 Rocket 4.5 22:39:26 10° N 22:45:40 87° E 22:51:01 15° S
ERS-1 Rocket 4.0 22:42:14 10° S 22:46:58 41° W 22:51:44 10° NNW
Nimbus 7 Rocket 4.5 22:41:34 10° NNE 22:47:37 66° ESE 22:53:38 10° S
Terra 2.5 22:46:49 20° SE 22:49:44 41° ENE 22:54:13 10° N
SPOT 5 2.9 22:48:43 15° S 22:52:09 63° WSW 22:56:32 10° NNW
H-2A R/B 2.8 22:52:19 22° SE 22:54:54 43° ENE 22:59:12 10° N
IGS 5A 4.1 22:54:43 23° SE 22:56:50 41° ENE 23:00:47 10° N
ATLAS CENTAUR R/B 3.7 23:01:51 10° N 23:03:47 14° NNE 23:05:42 10° ENE
Meteor 2-21 4.4 22:59:02 10° N 23:05:05 70° E 23:09:00 23° SSE
Cosmos 1626 Rocket 3.8 23:03:25 27° SSE 23:05:28 49° E 23:09:40 10° NNE
ISS -2.7 23:03:49 10° W 23:07:02 47° NNW 23:10:14 10° ENE
Cosmos 2278 4.2 23:03:46 10° NW 23:09:20 54° WSW 23:13:11 20° S
Cosmos 2082 Rocket 2.1 23:05:34 10° SSW 23:11:12 71° ESE 23:16:51 10° NNE
SL-19 R/B 4.4 23:08:36 10° NNE 23:13:47 47° E 23:16:21 26° SSE
Meteor 1-22 Rocket 4.1 23:08:37 10° N 23:13:56 73° ENE 23:16:58 27° SSE
SL-8 Rocket 4.2 23:12:16 10° NNW 23:18:31 72° W 23:23:07 19° S
Cosmos 2228 3.8 23:16:22 10° NNW 23:20:31 47° W 23:23:12 20° SSW
USA 229 DEB 3.9 23:14:33 10° NW 23:21:41 71° NE 23:26:31 23° SE
Meteor 1-4 Rocket 2.7 23:18:09 10° NNW 23:21:45 66° W 23:23:05 35° S
USA 229 3.9 23:14:39 10° NW 23:21:47 71° NE 23:26:38 23° SE
Cosmos 921 Rocket 4.5 23:19:23 10° NW 23:23:21 31° W 23:26:11 16° SSW
H-2A R/B 2.5 23:21:04 20° S 23:24:19 53° W 23:29:18 10° NNW
Cosmos 2366 rocket 4.0 23:18:11 10° N 23:24:22 86° W 23:28:15 24° S
Cosmos 158 Rocket 4.3 23:25:51 30° SSE 23:28:06 48° ESE 23:33:17 10° NNE
CZ-4C R/B 4.1 23:27:51 29° E 23:28:41 33° ENE 23:31:58 10° N
Cosmos 1697 Rocket 2.8 23:24:10 10° NNW 23:29:46 72° WSW 23:32:41 29° S
Cosmos 2360 4.4 23:25:11 10° NNW 23:30:53 63° ENE 23:33:49 29° SE
Iridium 2 4.0 23:27:10 10° N 23:30:55 52° E 23:31:46 41° SE
CZ-4B R/B 3.8 23:29:54 10° NNE 23:34:50 49° E 23:36:44 33° SSE
Cosmos 1842 3.6 23:34:20 42° SE 23:35:05 48° E 23:38:54 10° NNE
SL-16 R/B 3.4 23:30:56 10° NNW 23:36:04 33° NE 23:39:29 18° ESE
Cosmos 1656 4.3 23:31:26 10° NW 23:36:36 45° WSW 23:39:30 24° SSW
Cosmos 1271 Rocket 2.7 23:34:56 10° N 23:38:51 71° E 23:39:50 47° SSE
Cosmos 1602 Rocket 3.6 23:38:10 28° SSW 23:40:21 74° W 23:44:43 10° N
SL-19 R/B 4.3 23:41:26 43° SSE 23:42:46 89° WSW 23:46:33 10° NNW
DMSP B5D2-2 4.3 23:38:22 10° N 23:43:38 70° WNW 23:47:28 19° SSW
deb Chang Zheng 4 3.5 23:42:53 10° NNE 23:47:14 88° W 23:49:00 35° SSW
Cosmos 1833 Rocket 3.0 23:42:44 10° SW 23:48:18 67° WNW 23:53:57 10° NNE
CZ-4 R/B 3.9 23:43:21 10° NNE 23:48:25 77° ESE 23:50:37 34° S
Cosmos 389 Rocket 3.0 23:48:26 10° N 23:51:47 43° ENE 23:52:00 42° E
Cosmos 1269 Rocket 3.9 23:51:09 30° SSW 23:53:51 81° ESE 23:59:11 10° NNE
Cosmos 1953 2.6 23:49:58 10° N 23:53:59 54° ENE 23:54:46 45° ESE
